Flag for Germany Weather past 2 weeks in Neustadt am Rübenberge, Lower Saxony, Germany

Now
41 °F

Partly sunny.


Feels Like: 38 °F
Forecast: 37 / 58 °F
Wind: 5 mph from West

Location: Wunstorf Airport

Current Time: Apr 28, 2015 at 9:57:19 AM

Latest Report: Apr 28, 2015 at 9:20 AM


Visibility: N/A

Pressure: 29.92 "Hg

Humidity: 70%

Dew point: 32 °F

Location of Neustadt am RübenbergeLocation

Historic Weather in Neustadt am Rübenberge — Graph

°F

Neustadt am Rübenberge temperature yesterday

Maximum temperature yesterday: 50 °F (at 12:20 AM)
Minimum temperature yesterday: 43 °F (at 11:20 PM)
Average temperature yesterday: 48 °F

Past Weeks' High & Low Weather Summary

 TemperatureHumidityPressure
High72 °F (Apr 15, 3:20 PM)100% (Apr 23, 5:20 AM)30.42 "Hg (Apr 23, 5:20 AM)
Low34 °F (Apr 14, 5:20 AM)28% (Apr 21, 5:20 PM)29.62 "Hg (Apr 27, 4:20 AM)
Average51 °F67%30.08 "Hg
* Reported Apr 13 7:20 AM — Apr 28 7:20 AM, Neustadt am Rübenberge, Weather by CustomWeather, © 2015

Note: Actual official high and low records may vary slightly from our data, if they occured in-between our weather recording intervals... More about our weather records

Advertising

Neustadt am Rübenberge weather history for previous 24 hours

 ConditionsComfort  
Time TempWeatherWind HumidityBarometerVisibility
7:20 AM
Tue, Apr 28
34 °FScattered clouds.6 mph93%29.89 "HgN/A
6:20 AM34 °FPassing clouds.5 mph87%29.86 "HgN/A
5:20 AM34 °FPassing clouds.6 mph87%29.86 "HgN/A
4:20 AM36 °FPassing clouds.7 mph81%29.86 "HgN/A
3:20 AM36 °FPassing clouds.7 mph81%29.83 "HgN/A
2:20 AM37 °FPassing clouds.5 mph75%29.83 "HgN/A
1:20 AM39 °FPassing clouds.3 mph70%29.86 "HgN/A
12:20 AM41 °FPartly cloudy.7 mph70%29.83 "HgN/A
11:20 PM
Mon, Apr 27
43 °FPartly cloudy.13 mph66%29.83 "HgN/A
10:20 PM45 °FPassing clouds.12 mph71%29.80 "HgN/A
9:20 PM46 °FPartly sunny.9 mph66%29.80 "HgN/A
8:20 PM48 °FBroken clouds.7 mph58%29.77 "HgN/A
7:20 PM50 °FPartly sunny.8 mph58%29.77 "HgN/A
6:20 PM50 °FPartly sunny.7 mph58%29.77 "HgN/A
5:20 PM50 °FBroken clouds.9 mph62%29.77 "HgN/A
4:20 PM50 °FMore clouds than sun.10 mph58%29.77 "HgN/A
3:20 PM50 °FPartly sunny.13 mph58%29.74 "HgN/A
2:20 PM50 °FPartly sunny.13 mph67%29.74 "HgN/A
1:20 PM46 °FPartly sunny.10 mph82%29.74 "HgN/A
12:20 PM45 °FFog.12 mph93%29.74 "Hg3 mi
11:20 AM45 °FPartly sunny.12 mph93%29.71 "HgN/A
10:20 AM45 °FPartly sunny.12 mph93%29.68 "HgN/A
9:20 AM46 °FLight rain. Partly sunny.9 mph93%29.68 "Hg6 mi
Weather by CustomWeather, © 2015

See weather overviewHow to use our weather pages